Theta_e
326 324 327 322 305 304 298 299 305 304 304 310 313 310 309 312 311 308 334 341 342 343 348 349 349 351 350 350 349 349 349 348 347 346 346 346 346 346 346 346 347 347 347 347 347 347 346 345 345
323 321 323 316 301 296 297 303 301 305 307 316 317 317 315 310 322 327 334 342 343 345 348 347 345 349 349 349 349 348 349 348 347 346 346 346 346 345 345 344 344 343 343 343 344 345 345 345 345
320 321 313 307 301 296 296 302 304 307 309 312 313 317 317 315 323 331 338 342 343 345 347 347 345 348 348 348 348 348 348 347 347 346 346 346 346 345 344 343 343 342 342 342 342 342 343 342 343
318 317 314 302 298 302 302 303 305 306 313 316 316 313 314 318 327 335 341 342 343 344 346 344 345 348 348 348 347 346 346 346 346 345 345 344 344 343 343 343 342 342 341 341 341 341 342 341 341
318 314 302 300 299 303 305 306 307 306 307 309 313 311 312 317 330 339 341 342 342 344 345 346 344 345 346 346 346 346 345 344 344 344 343 341 340 340 339 338 336 335 335 336 336 336 335 335 338
309 311 299 296 298 302 306 309 308 307 309 309 309 309 312 321 332 336 341 342 342 342 343 344 337 340 342 344 344 343 343 342 341 340 338 336 334 333 332 331 330 329 328 328 327 327 327 327 327
306 303 297 298 298 299 303 309 307 307 308 308 311 306 312 320 333 335 339 341 339 340 341 342 343 335 332 335 336 337 336 335 333 331 328 326 325 324 323 323 323 322 322 321 321 320 320 319 319
308 305 298 299 297 297 304 306 309 307 306 312 313 305 308 319 333 334 336 336 335 337 338 339 335 332 330 328 325 326 326 326 323 321 318 317 317 316 315 318 316 317 317 317 316 316 315 314 314
310 299 295 298 298 299 304 304 309 309 308 309 311 311 309 324 329 326 331 334 332 332 334 332 326 326 324 322 318 320 320 319 316 314 313 313 313 312 312 310 311 311 312 312 312 312 310 310 311
304 298 297 303 303 302 305 305 306 305 306 306 307 308 312 327 324 322 323 325 329 327 321 326 323 321 319 316 318 316 314 315 314 314 312 312 311 310 308 307 306 306 306 307 308 308 307 309 309
301 297 302 303 306 307 305 305 307 305 303 307 307 310 312 322 323 321 323 325 325 322 316 317 319 317 315 315 314 313 313 313 312 312 311 310 309 310 310 310 309 309 306 307 307 307 307 308 308
295 299 300 302 305 305 302 303 303 305 307 309 308 307 312 319 320 321 323 324 322 319 317 316 318 316 315 314 313 313 312 312 310 310 310 310 310 309 308 307 307 307 307 307 307 307 307 306 307
295 296 298 301 302 303 303 302 303 303 306 306 302 302 307 316 321 323 324 320 318 317 315 315 315 313 313 312 312 312 310 310 309 309 308 309 308 307 307 306 306 306 305 305 305 305 305 305 305
295 296 296 298 298 300 299 300 303 304 309 306 304 304 305 310 318 322 320 317 315 314 311 312 312 312 311 311 311 310 309 308 308 307 306 306 306 306 305 305 305 304 304 304 303 303 303 303 304
295 291 294 294 296 296 299 294 296 302 306 305 306 305 305 306 314 318 317 317 316 313 309 310 311 311 310 310 310 309 307 307 306 305 305 304 304 304 304 304 303 303 303 302 302 302 302 302 302
290 290 287 293 294 295 297 288 296 302 302 302 304 306 306 305 308 315 319 318 317 313 309 309 309 309 309 309 308 307 306 306 304 303 303 303 302 302 302 303 302 301 301 301 301 300 300 301 300
289 283 286 288 294 293 294 290 295 300 300 299 302 303 305 305 306 308 316 315 315 313 309 308 309 308 308 307 306 305 304 303 303 303 302 301 301 300 301 301 301 300 300 300 299 299 299 299 299
283 283 285 285 289 290 290 291 295 298 295 296 299 301 301 301 303 305 307 312 312 311 309 308 308 308 307 305 304 303 302 301 302 302 301 300 300 299 300 300 299 299 299 299 298 297 298 298 298
286 285 284 287 289 287 287 288 290 293 293 293 294 296 297 297 301 303 304 305 308 309 308 307 306 306 304 303 301 300 300 300 300 300 299 299 298 298 299 299 298 298 297 296 296 296 296 298 297
287 284 284 287 289 288 287 287 290 292 292 293 294 295 296 297 298 296 299 301 302 305 306 306 306 305 304 303 303 302 301 300 299 298 298 297 297 297 297 297 297 296 296 295 295 295 295 296 296
285 284 284 283 287 288 285 285 288 291 291 293 294 295 296 296 296 297 296 297 300 303 305 306 305 304 304 303 300 298 298 297 296 296 296 296 296 296 296 295 296 295 295 295 294 294 293 293 296
282 287 286 284 283 280 284 279 287 290 289 291 292 293 293 294 295 297 297 296 297 301 305 306 306 304 302 301 300 298 298 297 298 297 297 295 295 294 294 294 294 294 295 294 293 293 293 293 292
284 286 285 285 283 282 283 279 285 287 287 290 292 293 293 294 295 295 297 296 297 301 303 305 305 303 301 300 301 300 300 299 297 296 295 295 294 294 293 293 293 293 294 293 292 293 293 294 293
287 285 284 283 282 277 281 280 284 287 289 290 290 293 293 293 292 293 296 296 296 300 303 304 303 301 300 299 300 300 299 296 295 294 294 294 294 293 292 292 292 292 292 292 292 292 291 292 292
286 282 279 278 276 277 279 278 283 289 291 291 289 292 293 292 292 291 292 293 295 298 301 301 301 299 298 298 298 299 298 296 296 295 295 294 293 293 292 292 292 292 292 292 292 292 292 292 291
283 283 280 274 276 278 280 278 284 289 291 291 292 292 292 292 293 291 291 293 294 296 298 299 299 298 298 298 297 296 296 296 296 296 295 295 294 293 292 292 291 290 290 291 291 292 292 291 291
283 280 285 280 272 275 281 285 289 292 289 292 292 293 292 292 292 292 292 293 294 295 297 298 299 297 296 296 295 294 295 295 294 294 294 293 293 291 291 291 290 290 290 290 291 291 290 290 290
284 285 279 281 273 272 278 277 283 288 287 288 292 292 292 294 293 293 292 293 294 295 296 298 298 296 296 296 294 293 293 294 294 293 292 292 292 291 291 290 290 290 290 290 290 290 290 289 288
281 281 281 282 280 275 274 279 289 287 288 288 289 292 292 293 293 292 292 292 293 294 295 296 297 295 294 294 293 292 292 292 292 292 292 291 291 291 290 290 289 289 289 290 290 290 289 288 288
282 281 281 277 276 278 277 278 291 289 289 290 290 292 294 294 294 292 291 291 292 293 293 294 295 294 294 293 293 292 291 291 290 291 291 291 290 290 289 289 289 289 289 289 290 288 289 287 287
Wind_Speed
4 3 2 4 6 5 11 6 5 6 4 2 1 5 7 12 5 2 4 3 12 14 13 15 10 12 15 14 13 12 13 13 13 13 13 14 14 14 13 13 12 11 11 11 11 10 8 6 6
4 3 2 2 8 11 11 10 10 12 4 1 3 5 7 6 1 4 8 8 14 13 14 14 10 12 14 14 13 12 13 13 14 13 12 12 12 12 12 11 10 10 9 9 9 10 11 10 9
4 2 4 5 10 15 8 9 13 11 4 6 4 3 3 0 3 7 4 12 13 13 12 13 11 13 13 13 12 12 12 12 13 13 12 11 12 12 11 10 10 9 8 8 8 8 8 8 8
5 4 3 11 16 14 18 1 3 7 3 4 3 4 3 1 1 5 10 13 13 13 12 13 12 14 14 13 13 13 13 12 13 12 12 12 12 11 11 11 10 10 9 8 7 8 8 8 7
4 3 10 12 21 17 9 12 2 6 1 3 4 2 3 3 2 6 12 12 13 12 11 14 11 13 14 13 14 13 13 13 12 14 14 13 13 13 12 14 14 13 14 14 14 13 13 13 12
6 5 10 19 19 13 13 11 11 14 14 7 6 7 3 4 7 8 11 11 11 12 10 13 10 10 11 13 14 13 12 14 16 17 16 16 16 15 14 14 13 13 12 13 13 13 12 12 12
12 10 17 17 13 14 15 7 15 18 14 13 5 9 1 8 10 9 10 9 9 11 11 10 12 13 14 14 15 15 16 17 17 18 17 17 16 15 15 14 13 13 12 12 12 12 12 11 11
7 7 16 13 15 17 4 8 12 13 17 5 5 8 10 10 15 11 10 10 9 9 11 11 10 10 12 12 15 16 16 16 18 17 16 17 16 14 13 9 13 12 12 12 12 12 12 11 9
2 9 12 19 15 9 5 8 5 1 11 5 5 6 4 7 14 10 12 13 11 8 8 9 8 8 11 12 12 13 15 16 17 14 11 9 7 8 10 11 11 12 11 11 11 11 11 11 4
11 12 17 9 13 9 9 9 13 7 9 8 7 8 2 12 14 14 14 15 15 13 9 9 10 10 10 9 11 10 9 7 8 8 8 7 7 6 7 7 9 10 8 8 8 9 7 6 6
7 16 16 13 12 11 14 11 9 10 14 14 11 8 9 14 15 14 13 14 13 10 8 8 11 11 12 10 8 6 5 5 6 7 6 6 4 3 3 2 3 4 6 5 6 6 5 7 6
11 14 17 14 13 10 8 5 10 14 21 7 5 4 10 14 17 18 16 14 12 14 12 12 13 13 11 8 7 7 6 6 5 5 6 4 3 3 3 3 4 4 4 6 5 4 6 6 6
11 15 12 14 17 17 9 14 18 14 12 7 4 5 9 13 16 15 14 12 14 14 14 13 13 12 11 10 8 7 7 6 6 5 5 3 4 3 3 3 4 4 4 5 5 5 5 6 6
3 9 15 13 18 12 14 22 20 17 17 16 13 14 11 13 16 13 14 15 16 15 16 15 14 12 12 9 10 7 6 7 6 5 5 6 4 3 3 3 3 3 4 4 4 5 6 6 6
7 12 14 17 14 10 12 23 21 18 20 19 17 15 15 14 13 19 17 17 18 14 13 16 15 13 13 12 10 7 6 6 5 5 6 6 4 4 3 2 3 3 3 5 5 5 5 5 6
4 5 6 3 5 9 10 16 14 13 20 23 24 21 17 16 17 16 16 16 16 16 18 16 13 14 13 11 8 7 6 6 5 5 5 6 5 4 3 2 2 3 3 4 4 5 5 5 6
5 8 8 10 3 2 14 10 12 13 15 17 16 18 19 20 17 15 16 16 17 18 18 17 16 15 14 12 8 7 7 5 5 5 5 6 5 4 3 2 2 3 3 3 4 4 5 6 6
5 7 7 10 1 3 9 15 20 13 7 12 15 17 17 18 21 18 16 16 17 18 18 17 14 16 14 10 8 6 6 5 4 4 4 5 4 4 2 1 1 2 2 3 4 6 5 6 6
4 6 13 14 7 6 13 14 23 16 13 17 17 19 20 18 19 15 16 16 16 17 19 20 18 18 13 11 10 7 7 6 5 4 6 5 4 4 2 1 1 2 3 4 5 5 6 4 7
12 15 17 18 12 11 15 16 23 22 20 21 22 22 22 20 19 15 17 17 19 21 20 21 20 20 15 11 8 5 8 5 5 5 5 5 5 4 2 0 1 2 2 3 4 5 5 3 5
12 15 14 13 13 13 13 15 15 9 11 16 21 23 19 21 20 20 17 19 19 21 22 21 21 21 18 15 10 7 7 5 5 6 5 4 5 4 2 1 0 1 2 2 3 4 5 4 2
13 9 14 11 7 5 2 8 10 13 12 13 17 15 19 18 17 19 19 19 20 20 18 21 21 21 18 18 13 15 10 9 6 8 6 5 5 4 3 2 1 1 1 2 2 2 3 3 3
5 1 4 5 7 8 10 7 4 4 10 18 9 4 10 13 15 17 18 18 20 17 19 19 20 20 19 18 15 11 10 6 8 7 9 6 5 4 3 2 2 2 1 2 2 2 2 1 2
2 2 2 1 3 7 9 9 5 6 6 7 6 15 12 7 6 12 13 14 15 16 17 18 20 19 19 18 16 15 13 12 10 9 8 7 5 4 4 4 3 3 2 1 1 1 1 2 1
5 3 3 4 5 7 1 5 8 15 14 12 17 18 15 11 9 6 9 12 15 18 18 17 20 19 19 18 16 14 13 13 13 12 8 9 6 5 5 5 4 3 2 1 0 1 1 1 1
7 4 4 6 4 4 1 7 3 8 8 6 8 10 11 11 9 6 7 10 12 16 18 19 19 18 18 18 16 12 12 8 8 9 8 6 6 5 6 5 4 4 2 2 2 2 1 1 2
4 7 2 4 2 4 6 4 10 12 8 9 10 14 13 13 12 10 5 8 11 14 17 18 18 17 18 17 13 13 12 11 10 10 9 7 7 6 6 6 5 4 4 3 2 0 1 2 3
4 2 3 3 5 7 4 4 7 2 6 3 10 13 14 17 15 12 6 5 7 11 13 15 16 17 18 17 14 12 12 11 11 10 10 10 8 9 8 7 6 5 4 4 3 1 2 2 2
3 3 4 4 5 6 5 4 2 3 7 11 10 11 15 18 15 12 7 4 6 8 12 13 15 16 15 14 14 13 12 12 11 10 10 10 9 9 8 7 6 5 5 4 3 2 2 2 3
4 5 5 8 7 5 6 11 11 12 9 13 15 17 18 13 14 9 6 4 5 8 11 13 13 14 15 14 13 13 13 12 12 10 10 10 9 8 8 8 6 5 5 5 4 3 2 1 2
Wind_Direction
192 241 250 220 232 244 237 230 255 219 224 222 199 222 234 249 224 331 125 121 141 151 150 156 152 150 139 134 133 126 121 116 111 104 101 100 97 94 90 86 77 72 66 63 60 63 72 57 54
187 186 210 193 244 229 235 222 223 236 236 230 219 234 237 227 177 115 151 150 148 149 149 150 140 142 138 137 136 130 125 123 119 111 105 100 97 95 92 86 78 74 71 65 58 55 53 50 51
172 233 211 226 234 233 255 196 236 229 226 224 230 248 304 59 146 159 112 151 152 151 150 129 139 139 138 137 136 131 124 123 119 116 110 100 93 85 79 76 74 70 66 63 56 52 45 39 38
177 179 204 239 230 239 240 326 243 211 142 175 220 224 206 317 176 165 152 156 159 153 153 139 143 136 132 128 128 125 124 123 115 110 109 101 97 91 83 70 64 61 55 53 53 52 46 31 25
186 215 229 236 243 241 235 242 227 181 146 198 204 197 249 171 172 159 160 164 159 154 150 151 139 133 134 129 123 119 116 114 114 104 97 95 93 88 84 79 70 59 54 53 50 49 46 40 31
181 241 228 233 235 243 248 241 245 249 257 233 250 260 247 137 155 168 167 162 155 147 145 142 130 127 132 131 121 113 113 108 102 97 94 92 88 85 81 77 76 71 61 53 49 44 43 40 32
227 218 236 249 259 251 237 230 236 247 249 235 246 247 121 189 163 162 160 150 132 133 131 140 133 113 101 100 99 101 104 104 102 100 99 96 93 86 78 73 72 67 61 55 45 37 33 31 26
235 251 245 241 244 248 216 220 243 245 254 289 227 239 229 181 156 155 154 139 132 152 144 136 130 124 117 107 96 97 99 103 106 105 102 97 91 87 76 74 61 59 53 48 39 30 24 14 14
216 236 237 231 235 234 180 222 192 292 243 216 206 264 24 182 147 152 166 164 154 148 149 141 131 126 115 109 99 100 103 107 108 102 98 97 89 86 80 67 64 58 51 45 33 25 15 359 359
215 230 242 243 250 242 222 249 256 233 218 235 232 222 155 164 175 173 181 177 182 163 164 160 147 140 127 126 131 123 126 115 110 109 104 98 93 80 87 81 64 58 42 42 28 18 6 349 346
215 242 238 248 262 252 259 255 238 246 250 251 257 246 188 188 195 196 197 196 185 163 152 167 152 144 136 139 139 137 130 126 111 109 106 105 106 100 77 60 36 19 23 13 1 360 8 355 345
246 243 256 253 259 254 250 284 251 246 252 293 266 266 193 198 201 205 200 193 184 177 159 165 161 151 145 141 149 143 141 135 129 113 112 118 109 90 64 43 26 16 12 2 2 357 349 346 346
241 256 258 261 255 258 266 253 255 251 251 229 247 220 218 213 214 209 204 191 181 180 167 168 161 152 150 152 150 148 142 139 127 118 99 98 91 78 59 44 28 18 1 1 348 342 336 335 331
319 277 271 271 258 249 255 256 249 249 255 253 250 251 234 222 217 207 203 193 190 181 174 167 171 164 160 158 155 148 148 136 130 118 107 94 90 83 63 51 33 17 0 351 335 333 330 329 327
280 283 275 255 250 250 240 254 244 257 247 248 243 243 243 231 213 212 206 202 191 186 174 172 172 167 166 157 150 148 146 139 132 119 107 97 91 87 72 51 24 7 346 325 325 327 326 323 325
254 251 279 46 255 232 203 265 261 247 241 245 251 247 240 235 219 217 209 207 195 183 183 172 171 170 163 156 152 149 149 138 131 127 119 108 99 90 83 57 30 356 336 336 333 335 325 325 320
213 262 250 294 248 248 213 264 272 257 246 249 248 244 243 241 232 223 210 203 194 189 182 177 173 171 163 155 149 143 140 139 133 133 126 124 113 94 80 60 36 347 342 345 340 331 330 322 325
231 234 238 257 69 233 244 257 272 267 272 265 264 259 251 244 240 228 214 204 197 191 186 179 173 168 159 150 143 139 140 140 141 133 126 135 112 97 112 107 57 348 341 350 346 334 334 323 328
249 258 267 261 265 277 263 272 278 276 264 256 255 254 250 245 243 236 219 205 198 194 186 183 174 170 162 163 156 162 168 160 150 135 135 125 119 121 117 101 29 360 6 3 348 334 333 332 345
249 263 268 280 280 243 273 274 274 271 260 255 253 252 246 244 232 218 218 205 196 191 190 185 182 173 176 171 173 163 152 172 153 143 138 131 131 122 148 164 28 10 348 1 355 349 336 338 3
242 248 260 260 300 255 279 270 251 268 241 257 251 248 253 243 236 222 206 203 200 194 189 188 183 178 178 173 151 126 120 123 154 165 155 150 145 150 162 153 20 23 339 351 346 348 353 336 12
273 241 252 274 269 270 282 293 272 285 283 269 266 245 248 243 235 235 214 202 198 198 188 183 182 180 180 172 170 169 176 169 180 171 157 150 162 167 167 145 99 31 7 356 346 347 328 329 5
250 135 233 258 251 300 232 255 256 271 277 271 291 307 289 273 244 229 221 208 199 187 184 183 178 180 177 178 178 175 171 151 146 148 153 162 164 168 151 134 114 72 42 33 353 311 335 345 325
359 226 171 147 250 250 243 234 257 264 252 310 340 318 315 324 280 247 229 204 196 187 182 180 177 178 176 178 181 182 168 156 156 160 164 171 169 163 163 148 124 115 101 63 3 351 355 335 341
233 249 277 231 207 252 63 235 270 273 279 316 318 326 334 341 332 294 227 201 185 184 183 177 176 176 176 178 179 179 170 167 168 166 170 164 166 175 172 163 151 121 114 167 253 240 230 245 272
206 230 238 272 265 326 220 242 184 255 331 317 11 19 27 17 345 310 254 216 193 189 184 178 178 172 173 175 176 170 163 166 165 167 164 168 163 159 161 156 128 126 198 186 199 229 282 300 298
160 210 279 282 123 265 243 268 264 272 84 51 53 47 30 13 353 333 286 216 196 191 192 186 177 172 172 173 164 166 165 164 164 158 159 160 149 150 167 151 141 152 195 180 173 186 255 266 269
262 22 185 206 257 253 223 258 243 37 45 347 9 30 14 1 358 352 327 252 200 197 193 190 185 175 169 167 169 167 166 164 159 159 165 164 157 159 165 152 145 158 174 174 181 198 236 257 275
172 218 234 281 232 264 291 247 274 37 2 9 9 360 348 351 354 352 338 290 235 196 189 188 183 173 169 164 163 161 163 164 163 167 164 162 164 163 160 152 147 158 180 171 175 187 222 278 288
295 308 273 246 229 246 279 262 306 12 33 6 347 338 339 336 341 344 323 266 207 206 192 186 182 177 173 165 161 166 164 164 169 168 163 163 166 164 155 150 154 167 183 179 172 171 181 247 311